Time,TemperatureF,DewpointF,PressureIn,WindDirection,WindDirectionDegrees,WindSpeedMPH,WindSpeedGustMPH,Humidity,HourlyPrecipIn,Conditions,Clouds,dailyrainin,SoftwareType,DateUTC
2013-01-08 00:04:00,18.0,13.0,-100.00,North,-999,-999.0,-999.0,82,-99.99,,,-99.99,,2013-01-08 05:04:00,
2013-01-08 00:12:00,18.0,13.0,-100.00,North,-999,-999.0,-999.0,82,-99.99,,,-99.99,,2013-01-08 05:12:00,
2013-01-08 00:22:00,18.0,13.0,-100.00,North,-999,-999.0,-999.0,81,-99.99,,,-99.99,,2013-01-08 05:22:00,
2013-01-08 00:33:00,19.0,14.0,-100.00,North,-999,-999.0,-999.0,80,-99.99,,,-99.99,,2013-01-08 05:33:00,
2013-01-08 00:43:00,19.0,14.0,-100.00,North,-999,-999.0,-999.0,80,-99.99,,,-99.99,,2013-01-08 05:43:00,
2013-01-08 00:53:00,20.0,15.0,-100.00,North,-999,-999.0,-999.0,81,-99.99,,,-99.99,,2013-01-08 05:53:00,
2013-01-08 01:02:00,21.0,16.0,-100.00,North,-999,-999.0,-999.0,80,-99.99,,,-99.99,,2013-01-08 06:02:00,
2013-01-08 01:12:00,21.0,16.0,-100.00,North,-999,-999.0,-999.0,80,-99.99,,,-99.99,,2013-01-08 06:12:00,
2013-01-08 01:22:00,22.0,16.0,-100.00,North,-999,-999.0,-999.0,79,-99.99,,,-99.99,,2013-01-08 06:22:00,
2013-01-08 01:33:00,22.0,16.0,-100.00,North,-999,-999.0,-999.0,78,-99.99,,,-99.99,,2013-01-08 06:33:00,
2013-01-08 01:42:00,22.0,16.0,-100.00,North,-999,-999.0,-999.0,78,-99.99,,,-99.99,,2013-01-08 06:42:00,
2013-01-08 01:53:00,24.0,18.0,-100.00,North,-999,-999.0,-999.0,78,-99.99,,,-99.99,,2013-01-08 06:53:00,
2013-01-08 02:02:00,24.0,18.0,-100.00,North,-999,-999.0,-999.0,78,-99.99,,,-99.99,,2013-01-08 07:02:00,
2013-01-08 02:12:00,24.0,18.0,-100.00,North,-999,-999.0,-999.0,78,-99.99,,,-99.99,,2013-01-08 07:12:00,
2013-01-08 02:22:00,25.0,19.0,-100.00,North,-999,-999.0,-999.0,78,-99.99,,,-99.99,,2013-01-08 07:22:00,
2013-01-08 02:32:00,25.0,19.0,-100.00,North,-999,-999.0,-999.0,78,-99.99,,,-99.99,,2013-01-08 07:32:00,
2013-01-08 02:42:00,25.0,19.0,-100.00,North,-999,-999.0,-999.0,78,-99.99,,,-99.99,,2013-01-08 07:42:00,
2013-01-08 02:52:00,26.0,21.0,-100.00,North,-999,-999.0,-999.0,80,-99.99,,,-99.99,,2013-01-08 07:52:00,
2013-01-08 03:02:00,26.0,21.0,-100.00,North,-999,-999.0,-999.0,80,-99.99,,,-99.99,,2013-01-08 08:02:00,
2013-01-08 03:12:00,26.0,21.0,-100.00,North,-999,-999.0,-999.0,80,-99.99,,,-99.99,,2013-01-08 08:12:00,
2013-01-08 03:22:00,26.0,21.0,-100.00,North,-999,-999.0,-999.0,81,-99.99,,,-99.99,,2013-01-08 08:22:00,
2013-01-08 03:32:00,25.0,20.0,-100.00,North,-999,-999.0,-999.0,82,-99.99,,,-99.99,,2013-01-08 08:32:00,
2013-01-08 03:42:00,25.0,20.0,-100.00,North,-999,-999.0,-999.0,82,-99.99,,,-99.99,,2013-01-08 08:42:00,
2013-01-08 03:53:00,28.0,24.0,-100.00,North,-999,-999.0,-999.0,84,-99.99,,,-99.99,,2013-01-08 08:53:00,
2013-01-08 04:02:00,28.0,24.0,-100.00,North,-999,-999.0,-999.0,84,-99.99,,,-99.99,,2013-01-08 09:02:00,
2013-01-08 04:12:00,28.0,24.0,-100.00,North,-999,-999.0,-999.0,84,-99.99,,,-99.99,,2013-01-08 09:12:00,
2013-01-08 04:22:00,27.0,23.0,-100.00,North,-999,-999.0,-999.0,85,-99.99,,,-99.99,,2013-01-08 09:22:00,
2013-01-08 04:32:00,26.0,22.0,-100.00,North,-999,-999.0,-999.0,85,-99.99,,,-99.99,,2013-01-08 09:32:00,
2013-01-08 04:42:00,26.0,22.0,-100.00,North,-999,-999.0,-999.0,85,-99.99,,,-99.99,,2013-01-08 09:42:00,
2013-01-08 04:53:00,26.0,22.0,-100.00,North,-999,-999.0,-999.0,85,-99.99,,,-99.99,,2013-01-08 09:53:00,
2013-01-08 05:02:00,25.0,21.0,-100.00,North,-999,-999.0,-999.0,85,-99.99,,,-99.99,,2013-01-08 10:02:00,
2013-01-08 05:12:00,25.0,21.0,-100.00,North,-999,-999.0,-999.0,85,-99.99,,,-99.99,,2013-01-08 10:12:00,
2013-01-08 05:22:00,25.0,21.0,-100.00,North,-999,-999.0,-999.0,86,-99.99,,,-99.99,,2013-01-08 10:22:00,
2013-01-08 05:33:00,26.0,22.0,-100.00,North,-999,-999.0,-999.0,86,-99.99,,,-99.99,,2013-01-08 10:33:00,
2013-01-08 05:42:00,26.0,22.0,-100.00,North,-999,-999.0,-999.0,86,-99.99,,,-99.99,,2013-01-08 10:42:00,
2013-01-08 05:53:00,27.0,23.0,-100.00,North,-999,-999.0,-999.0,85,-99.99,,,-99.99,,2013-01-08 10:53:00,
2013-01-08 06:02:00,27.0,23.0,-100.00,North,-999,-999.0,-999.0,86,-99.99,,,-99.99,,2013-01-08 11:02:00,
2013-01-08 06:12:00,27.0,23.0,-100.00,North,-999,-999.0,-999.0,86,-99.99,,,-99.99,,2013-01-08 11:12:00,
2013-01-08 06:23:00,26.0,22.0,-100.00,North,-999,-999.0,-999.0,86,-99.99,,,-99.99,,2013-01-08 11:23:00,
2013-01-08 06:33:00,27.0,23.0,-100.00,North,-999,-999.0,-999.0,86,-99.99,,,-99.99,,2013-01-08 11:33:00,
2013-01-08 06:42:00,27.0,23.0,-100.00,North,-999,-999.0,-999.0,86,-99.99,,,-99.99,,2013-01-08 11:42:00,
2013-01-08 06:53:00,27.0,23.0,-100.00,North,-999,-999.0,-999.0,85,-99.99,,,-99.99,,2013-01-08 11:53:00,
2013-01-08 07:03:00,27.0,23.0,-100.00,North,-999,-999.0,-999.0,85,-99.99,,,-99.99,,2013-01-08 12:03:00,
2013-01-08 07:12:00,27.0,23.0,-100.00,North,-999,-999.0,-999.0,85,-99.99,,,-99.99,,2013-01-08 12:12:00,
2013-01-08 07:22:00,27.0,23.0,-100.00,North,-999,-999.0,-999.0,85,-99.99,,,-99.99,,2013-01-08 12:22:00,
2013-01-08 07:33:00,27.0,23.0,-100.00,North,-999,-999.0,-999.0,85,-99.99,,,-99.99,,2013-01-08 12:33:00,
2013-01-08 07:43:00,27.0,23.0,-100.00,North,-999,-999.0,-999.0,85,-99.99,,,-99.99,,2013-01-08 12:43:00,
2013-01-08 07:53:00,27.0,23.0,-100.00,North,-999,-999.0,-999.0,85,-99.99,,,-99.99,,2013-01-08 12:53:00,
2013-01-08 08:03:00,27.0,23.0,-100.00,North,-999,-999.0,-999.0,85,-99.99,,,-99.99,,2013-01-08 13:03:00,
2013-01-08 08:12:00,27.0,23.0,-100.00,North,-999,-999.0,-999.0,85,-99.99,,,-99.99,,2013-01-08 13:12:00,
2013-01-08 08:22:00,30.0,26.0,-100.00,North,-999,-999.0,-999.0,84,-99.99,,,-99.99,,2013-01-08 13:22:00,
2013-01-08 08:33:00,29.0,25.0,-100.00,North,-999,-999.0,-999.0,83,-99.99,,,-99.99,,2013-01-08 13:33:00,
2013-01-08 08:43:00,29.0,25.0,-100.00,North,-999,-999.0,-999.0,83,-99.99,,,-99.99,,2013-01-08 13:43:00,
2013-01-08 08:53:00,31.0,26.0,-100.00,North,-999,-999.0,-999.0,81,-99.99,,,-99.99,,2013-01-08 13:53:00,
2013-01-08 09:02:00,32.0,27.0,-100.00,North,-999,-999.0,-999.0,80,-99.99,,,-99.99,,2013-01-08 14:02:00,
2013-01-08 09:13:00,32.0,27.0,-100.00,North,-999,-999.0,-999.0,80,-99.99,,,-99.99,,2013-01-08 14:13:00,
2013-01-08 09:23:00,34.0,28.0,-100.00,North,-999,-999.0,-999.0,78,-99.99,,,-99.99,,2013-01-08 14:23:00,
2013-01-08 09:33:00,35.0,29.0,-100.00,North,-999,-999.0,-999.0,77,-99.99,,,-99.99,,2013-01-08 14:33:00,
2013-01-08 09:43:00,35.0,29.0,-100.00,North,-999,-999.0,-999.0,77,-99.99,,,-99.99,,2013-01-08 14:43:00,
2013-01-08 09:53:00,36.0,29.0,-100.00,North,-999,-999.0,-999.0,74,-99.99,,,-99.99,,2013-01-08 14:53:00,
2013-01-08 10:03:00,37.0,29.0,-100.00,North,-999,-999.0,-999.0,74,-99.99,,,-99.99,,2013-01-08 15:03:00,
2013-01-08 10:12:00,37.0,29.0,-100.00,North,-999,-999.0,-999.0,74,-99.99,,,-99.99,,2013-01-08 15:12:00,
2013-01-08 10:23:00,39.0,30.0,-100.00,North,-999,-999.0,-999.0,71,-99.99,,,-99.99,,2013-01-08 15:23:00,
2013-01-08 10:33:00,39.0,30.0,-100.00,North,-999,-999.0,-999.0,71,-99.99,,,-99.99,,2013-01-08 15:33:00,
2013-01-08 10:43:00,39.0,30.0,-100.00,North,-999,-999.0,-999.0,71,-99.99,,,-99.99,,2013-01-08 15:43:00,
2013-01-08 10:53:00,40.0,30.0,-100.00,North,-999,-999.0,-999.0,68,-99.99,,,-99.99,,2013-01-08 15:53:00,
2013-01-08 11:03:00,40.0,30.0,-100.00,North,-999,-999.0,-999.0,68,-99.99,,,-99.99,,2013-01-08 16:03:00,
2013-01-08 11:13:00,40.0,30.0,-100.00,North,-999,-999.0,-999.0,68,-99.99,,,-99.99,,2013-01-08 16:13:00,
2013-01-08 11:23:00,41.0,31.0,-100.00,North,-999,-999.0,-999.0,66,-99.99,,,-99.99,,2013-01-08 16:23:00,
2013-01-08 11:34:00,42.0,31.0,-100.00,North,-999,-999.0,-999.0,65,-99.99,,,-99.99,,2013-01-08 16:34:00,
2013-01-08 11:43:00,42.0,31.0,-100.00,North,-999,-999.0,-999.0,65,-99.99,,,-99.99,,2013-01-08 16:43:00,
2013-01-08 11:53:00,42.0,31.0,-100.00,North,-999,-999.0,-999.0,64,-99.99,,,-99.99,,2013-01-08 16:53:00,
2013-01-08 12:03:00,43.0,32.0,-100.00,North,-999,-999.0,-999.0,64,-99.99,,,-99.99,,2013-01-08 17:03:00,
2013-01-08 12:13:00,43.0,32.0,-100.00,North,-999,-999.0,-999.0,64,-99.99,,,-99.99,,2013-01-08 17:13:00,
2013-01-08 12:23:00,43.0,31.0,-100.00,North,-999,-999.0,-999.0,62,-99.99,,,-99.99,,2013-01-08 17:23:00,
2013-01-08 12:34:00,43.0,31.0,-100.00,North,-999,-999.0,-999.0,62,-99.99,,,-99.99,,2013-01-08 17:34:00,
2013-01-08 12:43:00,43.0,31.0,-100.00,North,-999,-999.0,-999.0,62,-99.99,,,-99.99,,2013-01-08 17:43:00,
2013-01-08 12:54:00,42.0,30.0,-100.00,North,-999,-999.0,-999.0,61,-99.99,,,-99.99,,2013-01-08 17:54:00,
2013-01-08 13:04:00,42.0,30.0,-100.00,North,-999,-999.0,-999.0,63,-99.99,,,-99.99,,2013-01-08 18:04:00,
2013-01-08 13:13:00,42.0,30.0,-100.00,North,-999,-999.0,-999.0,63,-99.99,,,-99.99,,2013-01-08 18:13:00,
2013-01-08 13:23:00,43.0,31.0,-100.00,North,-999,-999.0,-999.0,62,-99.99,,,-99.99,,2013-01-08 18:23:00,
2013-01-08 13:33:00,46.0,34.0,-100.00,North,-999,-999.0,-999.0,62,-99.99,,,-99.99,,2013-01-08 18:33:00,
2013-01-08 13:43:00,46.0,34.0,-100.00,North,-999,-999.0,-999.0,62,-99.99,,,-99.99,,2013-01-08 18:43:00,
2013-01-08 13:53:00,44.0,31.0,-100.00,North,-999,-999.0,-999.0,60,-99.99,,,-99.99,,2013-01-08 18:53:00,
2013-01-08 14:03:00,46.0,33.0,-100.00,North,-999,-999.0,-999.0,60,-99.99,,,-99.99,,2013-01-08 19:03:00,
2013-01-08 14:12:00,46.0,33.0,-100.00,North,-999,-999.0,-999.0,60,-99.99,,,-99.99,,2013-01-08 19:12:00,
2013-01-08 14:23:00,45.0,32.0,-100.00,North,-999,-999.0,-999.0,60,-99.99,,,-99.99,,2013-01-08 19:23:00,
2013-01-08 14:33:00,43.0,30.0,-100.00,North,-999,-999.0,-999.0,61,-99.99,,,-99.99,,2013-01-08 19:33:00,
2013-01-08 14:43:00,43.0,30.0,-100.00,North,-999,-999.0,-999.0,61,-99.99,,,-99.99,,2013-01-08 19:43:00,
2013-01-08 14:53:00,42.0,30.0,-100.00,North,-999,-999.0,-999.0,63,-99.99,,,-99.99,,2013-01-08 19:53:00,
2013-01-08 15:03:00,43.0,31.0,-100.00,North,-999,-999.0,-999.0,63,-99.99,,,-99.99,,2013-01-08 20:03:00,
2013-01-08 15:12:00,43.0,31.0,-100.00,North,-999,-999.0,-999.0,63,-99.99,,,-99.99,,2013-01-08 20:12:00,
2013-01-08 15:23:00,43.0,32.0,-100.00,North,-999,-999.0,-999.0,64,-99.99,,,-99.99,,2013-01-08 20:23:00,
2013-01-08 15:33:00,44.0,32.0,-100.00,North,-999,-999.0,-999.0,63,-99.99,,,-99.99,,2013-01-08 20:33:00,
2013-01-08 15:43:00,44.0,32.0,-100.00,North,-999,-999.0,-999.0,63,-99.99,,,-99.99,,2013-01-08 20:43:00,
2013-01-08 15:54:00,42.0,31.0,-100.00,North,-999,-999.0,-999.0,64,-99.99,,,-99.99,,2013-01-08 20:54:00,
2013-01-08 16:03:00,41.0,30.0,-100.00,North,-999,-999.0,-999.0,65,-99.99,,,-99.99,,2013-01-08 21:03:00,
2013-01-08 16:13:00,41.0,30.0,-100.00,North,-999,-999.0,-999.0,65,-99.99,,,-99.99,,2013-01-08 21:13:00,
2013-01-08 16:23:00,39.0,29.0,-100.00,North,-999,-999.0,-999.0,68,-99.99,,,-99.99,,2013-01-08 21:23:00,
2013-01-08 16:33:00,38.0,29.0,-100.00,North,-999,-999.0,-999.0,69,-99.99,,,-99.99,,2013-01-08 21:33:00,
2013-01-08 16:43:00,38.0,29.0,-100.00,North,-999,-999.0,-999.0,69,-99.99,,,-99.99,,2013-01-08 21:43:00,
2013-01-08 16:53:00,36.0,28.0,-100.00,North,-999,-999.0,-999.0,72,-99.99,,,-99.99,,2013-01-08 21:53:00,
2013-01-08 17:03:00,36.0,28.0,-100.00,North,-999,-999.0,-999.0,73,-99.99,,,-99.99,,2013-01-08 22:03:00,
2013-01-08 17:12:00,36.0,28.0,-100.00,North,-999,-999.0,-999.0,73,-99.99,,,-99.99,,2013-01-08 22:12:00,
2013-01-08 17:23:00,32.0,25.0,-100.00,North,-999,-999.0,-999.0,76,-99.99,,,-99.99,,2013-01-08 22:23:00,
2013-01-08 17:33:00,31.0,24.0,-100.00,North,-999,-999.0,-999.0,76,-99.99,,,-99.99,,2013-01-08 22:33:00,
2013-01-08 17:43:00,31.0,24.0,-100.00,North,-999,-999.0,-999.0,76,-99.99,,,-99.99,,2013-01-08 22:43:00,
2013-01-08 17:53:00,30.0,24.0,-100.00,North,-999,-999.0,-999.0,79,-99.99,,,-99.99,,2013-01-08 22:53:00,
2013-01-08 18:03:00,31.0,26.0,-100.00,North,-999,-999.0,-999.0,81,-99.99,,,-99.99,,2013-01-08 23:03:00,
2013-01-08 18:13:00,31.0,26.0,-100.00,North,-999,-999.0,-999.0,81,-99.99,,,-99.99,,2013-01-08 23:13:00,
2013-01-08 18:23:00,30.0,25.0,-100.00,North,-999,-999.0,-999.0,80,-99.99,,,-99.99,,2013-01-08 23:23:00,
2013-01-08 18:33:00,30.0,25.0,-100.00,North,-999,-999.0,-999.0,81,-99.99,,,-99.99,,2013-01-08 23:33:00,
2013-01-08 18:43:00,30.0,25.0,-100.00,North,-999,-999.0,-999.0,81,-99.99,,,-99.99,,2013-01-08 23:43:00,
2013-01-08 18:53:00,29.0,24.0,-100.00,North,-999,-999.0,-999.0,81,-99.99,,,-99.99,,2013-01-08 23:53:00,
2013-01-08 19:03:00,29.0,24.0,-100.00,North,-999,-999.0,-999.0,82,-99.99,,,-99.99,,2013-01-09 00:03:00,
2013-01-08 19:13:00,29.0,24.0,-100.00,North,-999,-999.0,-999.0,82,-99.99,,,-99.99,,2013-01-09 00:13:00,
2013-01-08 19:22:00,29.0,24.0,-100.00,North,-999,-999.0,-999.0,82,-99.99,,,-99.99,,2013-01-09 00:22:00,
2013-01-08 19:33:00,30.0,25.0,-100.00,North,-999,-999.0,-999.0,81,-99.99,,,-99.99,,2013-01-09 00:33:00,
2013-01-08 19:43:00,30.0,25.0,-100.00,North,-999,-999.0,-999.0,81,-99.99,,,-99.99,,2013-01-09 00:43:00,
2013-01-08 19:53:00,30.0,25.0,-100.00,North,-999,-999.0,-999.0,81,-99.99,,,-99.99,,2013-01-09 00:53:00,
2013-01-08 20:02:00,30.0,25.0,-100.00,North,-999,-999.0,-999.0,81,-99.99,,,-99.99,,2013-01-09 01:02:00,
2013-01-08 20:12:00,30.0,25.0,-100.00,North,-999,-999.0,-999.0,81,-99.99,,,-99.99,,2013-01-09 01:12:00,
2013-01-08 20:22:00,29.0,24.0,-100.00,North,-999,-999.0,-999.0,81,-99.99,,,-99.99,,2013-01-09 01:22:00,
2013-01-08 20:33:00,28.0,23.0,-100.00,North,-999,-999.0,-999.0,82,-99.99,,,-99.99,,2013-01-09 01:33:00,
2013-01-08 20:43:00,28.0,23.0,-100.00,North,-999,-999.0,-999.0,82,-99.99,,,-99.99,,2013-01-09 01:43:00,
2013-01-08 20:53:00,28.0,24.0,-100.00,North,-999,-999.0,-999.0,83,-99.99,,,-99.99,,2013-01-09 01:53:00,
2013-01-08 21:02:00,29.0,25.0,-100.00,North,-999,-999.0,-999.0,84,-99.99,,,-99.99,,2013-01-09 02:02:00,
2013-01-08 21:12:00,29.0,25.0,-100.00,North,-999,-999.0,-999.0,84,-99.99,,,-99.99,,2013-01-09 02:12:00,
2013-01-08 21:22:00,27.0,23.0,-100.00,North,-999,-999.0,-999.0,84,-99.99,,,-99.99,,2013-01-09 02:22:00,
2013-01-08 21:33:00,26.0,22.0,-100.00,North,-999,-999.0,-999.0,85,-99.99,,,-99.99,,2013-01-09 02:33:00,
2013-01-08 21:43:00,26.0,22.0,-100.00,North,-999,-999.0,-999.0,85,-99.99,,,-99.99,,2013-01-09 02:43:00,
2013-01-08 21:53:00,26.0,22.0,-100.00,North,-999,-999.0,-999.0,85,-99.99,,,-99.99,,2013-01-09 02:53:00,
2013-01-08 22:03:00,27.0,23.0,-100.00,North,-999,-999.0,-999.0,86,-99.99,,,-99.99,,2013-01-09 03:03:00,
2013-01-08 22:12:00,27.0,23.0,-100.00,North,-999,-999.0,-999.0,86,-99.99,,,-99.99,,2013-01-09 03:12:00,
2013-01-08 22:22:00,27.0,23.0,-100.00,North,-999,-999.0,-999.0,86,-99.99,,,-99.99,,2013-01-09 03:22:00,
2013-01-08 22:33:00,27.0,24.0,-100.00,North,-999,-999.0,-999.0,87,-99.99,,,-99.99,,2013-01-09 03:33:00,
2013-01-08 22:43:00,27.0,24.0,-100.00,North,-999,-999.0,-999.0,87,-99.99,,,-99.99,,2013-01-09 03:43:00,
2013-01-08 22:53:00,27.0,24.0,-100.00,North,-999,-999.0,-999.0,87,-99.99,,,-99.99,,2013-01-09 03:53:00,
2013-01-08 23:02:00,27.0,24.0,-100.00,North,-999,-999.0,-999.0,87,-99.99,,,-99.99,,2013-01-09 04:02:00,
2013-01-08 23:12:00,27.0,24.0,-100.00,North,-999,-999.0,-999.0,87,-99.99,,,-99.99,,2013-01-09 04:12:00,
2013-01-08 23:22:00,27.0,24.0,-100.00,North,-999,-999.0,-999.0,88,-99.99,,,-99.99,,2013-01-09 04:22:00,
2013-01-08 23:33:00,27.0,24.0,-100.00,North,-999,-999.0,-999.0,88,-99.99,,,-99.99,,2013-01-09 04:33:00,
2013-01-08 23:42:00,27.0,24.0,-100.00,North,-999,-999.0,-999.0,88,-99.99,,,-99.99,,2013-01-09 04:42:00,
2013-01-08 23:52:00,27.0,24.0,-100.00,North,-999,-999.0,-999.0,89,-99.99,,,-99.99,,2013-01-09 04:52:00,